sat.trackr.live / text

‹ back to catalog

2025-013D

NORAD 62732 · 2025-013D

PAYLOAD ACTIVE UNKNOWN

§ Identity

Operator
Country
PRC
Launch date
2025-01-20
Launch site
JSC
Launch vehicle
Mass (kg)
RCS (m²)

External: N2YO · Heavens-Above · Gunter

§ Orbital elements

Epoch: 2026-05-25T04:13:23.335392Z

Period
95.29 min
Inclination
97.6536°
Eccentricity
0.0010107
Mean motion
15.11160685 rev/d
Perigee alt
525.7 km
Apogee alt
539.6 km
Semi-major
6,910.8 km
B*
1.7705e-4
RAAN
314.5715°
Arg perigee
107.1732°
Mean anomaly
253.0605°
Rev number
7,380

§ Raw data

2025-013D1 62732U 25013D   26145.17596453  .00002907  00000+0  17705-3 0  99992 62732  97.6536 314.5715 0010107 107.1732 253.0605 15.11160685 73807

JSON: /api/v1/satellites/62732 · /tle

For live sub-satellite position, see the globe view (requires WebGL).

§ Visibility from observer

Set your observer location to see the next 7 days of passes ≥ 10°. The values pass through the URL so the page stays shareable.

No JS? Fill the form by hand. The geolocation button needs JavaScript.